sat.trackr.live / text

‹ back to catalog

STARLINK-5638

NORAD 55426 · 2023-014AM

PAYLOAD ACTIVE UNKNOWN

§ Identity

Operator
Country
US
Launch date
2023-01-31
Launch site
AFWTR
Launch vehicle
Mass (kg)
RCS (m²)

Purposes: comms

External: N2YO · Heavens-Above · Gunter

§ Orbital elements

Epoch: 2026-09-20T22:00:03.000096Z

Period
95.60 min
Inclination
70.0021°
Eccentricity
0.0003161
Mean motion
15.06236839 rev/d
Perigee alt
545.5 km
Apogee alt
549.9 km
Semi-major
6,925.8 km
B*
5.4330e-3
RAAN
312.2702°
Arg perigee
324.2988°
Mean anomaly
55.8696°
Rev number
571

§ Raw data

STARLINK-56381 55426U 23014AM  26263.91670139  .00080676  00000+0  54330-2 0  99902 55426  70.0021 312.2702 0003161 324.2988  55.8696 15.06236839  5713

JSON: /api/v1/satellites/55426 · /tle

For live sub-satellite position, see the globe view (requires WebGL).

§ Visibility from observer

Set your observer location to see the next 7 days of passes ≥ 10°. The values pass through the URL so the page stays shareable.

No JS? Fill the form by hand. The geolocation button needs JavaScript.